| time (UTC) | temp F | wind direction | speed MPH | gust MPH | rain 1hr in | rain 24hr in | rain mn in | humidity % | barometer mb |
| 20260905073503 | 83 | 135 | 2.0 | 4.0 | 0.00 | 0.00 | 0.00 | 57 | 1015.3 |
| 20260905073004 | 83 | 124 | 2.0 | 5.0 | 0.00 | 0.00 | 0.00 | 57 | 1015.3 |
| 20260905072503 | 83 | 102 | 3.0 | 5.0 | 0.00 | 0.00 | 0.00 | 57 | 1015.3 |
| 20260905072005 | 83 | 98 | 3.0 | 5.0 | 0.00 | 0.00 | 0.00 | 56 | 1015.3 |
| 20260905071503 | 83 | 86 | 2.0 | 4.0 | 0.00 | 0.00 | 0.00 | 57 | 1015.3 |
| 20260905071003 | 82 | 88 | 3.0 | 5.0 | 0.00 | 0.00 | 0.00 | 57 | 1015.3 |
| 20260905070713 | 82 | 91 | 3.0 | 5.0 | 0.00 | 0.00 | 0.00 | 57 | 1015.3 |
| 20260905070004 | 82 | 83 | 3.0 | 4.0 | 0.00 | 0.00 | 0.00 | 57 | 1015.3 |
| 20260905065504 | 81 | 90 | 3.0 | 4.0 | 0.00 | 0.00 | 0.00 | 57 | 1015.3 |
| 20260905065004 | 81 | 77 | 3.0 | 8.0 | 0.00 | 0.00 | 0.00 | 57 | 1015.3 |
| 20260905064504 | 81 | 56 | 4.0 | 8.0 | 0.00 | 0.00 | 0.00 | 58 | 1015.3 |
| 20260905064004 | 80 | 51 | 4.0 | 6.0 | 0.00 | 0.00 | 0.00 | 59 | 1015.3 |
| 20260905063716 | 79 | 50 | 4.0 | 6.0 | 0.00 | 0.00 | 0.00 | 60 | 1015.3 |
| 20260905063004 | 78 | 49 | 3.0 | 5.0 | 0.00 | 0.00 | 0.00 | 63 | 1015.3 |
| 20260905062504 | 78 | 59 | 3.0 | 5.0 | 0.00 | 0.00 | 0.00 | 66 | 1015.3 |
| 20260905062004 | 77 | 47 | 3.0 | 5.0 | 0.00 | 0.00 | 0.00 | 67 | 1015.3 |
| 20260905061718 | 76 | 47 | 4.0 | 5.0 | 0.00 | 0.00 | 0.00 | 68 | 1015.3 |
| 20260905061004 | 76 | 45 | 2.0 | 4.0 | 0.00 | 0.00 | 0.00 | 70 | 1015.3 |
| 20260905060504 | 76 | 45 | 1.0 | 3.0 | 0.00 | 0.00 | 0.00 | 72 | 1015.3 |
| 20260905060004 | 75 | 34 | 1.0 | 2.0 | 0.00 | 0.00 | 0.00 | 73 | 1015.3 |
| 20260905055504 | 74 | 34 | 1.0 | 3.0 | 0.00 | 0.00 | 0.00 | 73 | 1015.3 |
| 20260905055218 | 74 | 36 | 1.0 | 3.0 | 0.00 | 0.00 | 0.00 | 74 | 1015.3 |
| 20260905054504 | 74 | 45 | 1.0 | 3.0 | 0.00 | 0.00 | 0.00 | 74 | 1015.3 |
| 20260905054004 | 73 | 37 | 2.0 | 3.0 | 0.00 | 0.00 | 0.00 | 74 | 1015.3 |
| 20260905053504 | 72 | 34 | 2.0 | 3.0 | 0.00 | 0.00 | 0.00 | 74 | 1015.3 |
| 20260905053215 | 72 | 26 | 2.0 | 4.0 | 0.00 | 0.00 | 0.00 | 74 | 1015.3 |
| 20260905052713 | 72 | 31 | 2.0 | 4.0 | 0.00 | 0.00 | 0.00 | 75 | 1015.3 |
| 20260905052216 | 71 | 41 | 3.0 | 4.0 | 0.00 | 0.00 | 0.00 | 75 | 1015.3 |
| 20260905051504 | 71 | 45 | 3.0 | 4.0 | 0.00 | 0.00 | 0.00 | 76 | 1015.3 |
| 20260905051004 | 71 | 33 | 3.0 | 4.0 | 0.00 | 0.00 | 0.00 | 76 | 1015.3 |
| 20260905050715 | 71 | 24 | 2.0 | 4.0 | 0.00 | 0.00 | 0.00 | 76 | 1015.3 |
| 20260905050218 | 71 | 5 | 3.0 | 5.0 | 0.00 | 0.00 | 0.00 | 76 | 1015.3 |
| 20260905045716 | 70 | 9 | 3.0 | 5.0 | 0.00 | 0.00 | 0.00 | 76 | 1014.3 |
| 20260905045003 | 70 | 28 | 2.0 | 4.0 | 0.00 | 0.00 | 0.00 | 76 | 1014.3 |
| 20260905044504 | 70 | 25 | 3.0 | 4.0 | 0.00 | 0.00 | 0.00 | 76 | 1014.3 |
| 20260905044003 | 70 | 20 | 2.0 | 4.0 | 0.00 | 0.00 | 0.00 | 76 | 1014.3 |
| 20260905043503 | 71 | 15 | 1.0 | 4.0 | 0.00 | 0.00 | 0.00 | 76 | 1014.3 |
| 20260905043005 | 71 | 30 | 1.0 | 2.0 | 0.00 | 0.00 | 0.00 | 76 | 1014.3 |
| 20260905042503 | 71 | 42 | 2.0 | 3.0 | 0.00 | 0.00 | 0.00 | 77 | 1014.3 |
| 20260905042216 | 71 | 43 | 2.0 | 3.0 | 0.00 | 0.00 | 0.00 | 77 | 1014.3 |
| 20260905041503 | 71 | 42 | 1.0 | 3.0 | 0.00 | 0.00 | 0.00 | 77 | 1014.3 |
| 20260905041003 | 71 | 20 | 2.0 | 4.0 | 0.00 | 0.00 | 0.00 | 77 | 1014.3 |
| 20260905040503 | 71 | 10 | 2.0 | 4.0 | 0.00 | 0.00 | 0.00 | 77 | 1014.3 |
| 20260905040003 | 71 | 9 | 2.0 | 4.0 | 0.00 | 0.00 | 0.00 | 78 | 1014.3 |
| 20260905035503 | 71 | 29 | 2.0 | 3.0 | 0.00 | 0.00 | 0.00 | 78 | 1014.3 |
| 20260905035214 | 71 | 33 | 1.0 | 3.0 | 0.00 | 0.00 | 0.00 | 78 | 1014.3 |
| 20260905034717 | 71 | 20 | 0.0 | 2.0 | 0.00 | 0.00 | 0.00 | 78 | 1014.3 |
| 20260905034003 | 71 | 339 | 0.0 | 2.0 | 0.00 | 0.00 | 0.00 | 78 | 1014.3 |
| 20260905033505 | 71 | 341 | 1.0 | 3.0 | 0.00 | 0.00 | 0.00 | 78 | 1014.3 |
| 20260905033216 | 71 | 2 | 2.0 | 4.0 | 0.00 | 0.00 | 0.00 | 78 | 1014.3 |
| 20260905032503 | 71 | 20 | 3.0 | 5.0 | 0.00 | 0.00 | 0.00 | 79 | 1014.3 |
| 20260905032217 | 71 | 9 | 3.0 | 5.0 | 0.00 | 0.00 | 0.00 | 79 | 1014.3 |
| 20260905031504 | 70 | 2 | 3.0 | 5.0 | 0.00 | 0.00 | 0.00 | 80 | 1014.3 |
| 20260905031218 | 70 | 360 | 3.0 | 4.0 | 0.00 | 0.00 | 0.00 | 80 | 1014.3 |
| 20260905030504 | 70 | 12 | 2.0 | 3.0 | 0.00 | 0.00 | 0.00 | 80 | 1014.3 |
| 20260905030004 | 70 | 33 | 1.0 | 2.0 | 0.00 | 0.00 | 0.00 | 80 | 1014.3 |
| 20260905025504 | 70 | 25 | 1.0 | 3.0 | 0.00 | 0.00 | 0.00 | 80 | 1014.3 |
| 20260905025004 | 70 | 9 | 2.0 | 3.0 | 0.00 | 0.00 | 0.00 | 80 | 1014.3 |
| 20260905024718 | 70 | 6 | 2.0 | 3.0 | 0.00 | 0.00 | 0.00 | 80 | 1014.3 |
| 20260905024004 | 70 | 360 | 2.0 | 2.0 | 0.00 | 0.00 | 0.00 | 80 | 1014.3 |
| 20260905023504 | 70 | 360 | 2.0 | 2.0 | 0.00 | 0.00 | 0.00 | 81 | 1014.3 |
| 20260905023004 | 70 | 357 | 1.0 | 2.0 | 0.00 | 0.00 | 0.00 | 81 | 1014.3 |
| 20260905022504 | 70 | 349 | 1.0 | 2.0 | 0.00 | 0.00 | 0.00 | 81 | 1014.3 |
| 20260905022004 | 70 | 326 | 1.0 | 2.0 | 0.00 | 0.00 | 0.00 | 81 | 1014.3 |
| 20260905021504 | 71 | 334 | 1.0 | 4.0 | 0.00 | 0.00 | 0.00 | 82 | 1014.3 |
| 20260905021213 | 71 | 331 | 2.0 | 5.0 | 0.00 | 0.00 | 0.00 | 82 | 1014.3 |
| 20260905020504 | 71 | 327 | 2.0 | 5.0 | 0.00 | 0.00 | 0.00 | 82 | 1014.3 |
| 20260905020214 | 70 | 326 | 1.0 | 5.0 | 0.00 | 0.00 | 0.00 | 82 | 1014.3 |
| 20260905015717 | 70 | 350 | 1.0 | 3.0 | 0.00 | 0.00 | 0.00 | 82 | 1014.3 |
| 20260905015004 | 70 | 360 | 2.0 | 4.0 | 0.00 | 0.00 | 0.00 | 82 | 1014.3 |
| 20260905014504 | 70 | 360 | 3.0 | 4.0 | 0.00 | 0.00 | 0.00 | 82 | 1014.3 |
| 20260905014004 | 71 | 360 | 2.0 | 3.0 | 0.00 | 0.00 | 0.00 | 82 | 1014.3 |
| 20260905013504 | 71 | 360 | 1.0 | 3.0 | 0.00 | 0.00 | 0.00 | 82 | 1014.3 |
| 20260905013004 | 71 | 360 | 1.0 | 3.0 | 0.00 | 0.00 | 0.00 | 82 | 1014.3 |
| 20260905012504 | 71 | 360 | 2.0 | 4.0 | 0.00 | 0.00 | 0.00 | 83 | 1014.3 |
| 20260905012004 | 71 | 360 | 2.0 | 4.0 | 0.00 | 0.00 | 0.00 | 83 | 1014.3 |
| 20260905011504 | 72 | 357 | 1.0 | 3.0 | 0.00 | 0.00 | 0.00 | 83 | 1014.3 |
| 20260905011004 | 72 | 347 | 1.0 | 2.0 | 0.00 | 0.00 | 0.00 | 84 | 1014.3 |
| 20260905010504 | 72 | 339 | 2.0 | 3.0 | 0.00 | 0.00 | 0.00 | 84 | 1014.3 |
| 20260905010215 | 72 | 339 | 2.0 | 3.0 | 0.00 | 0.00 | 0.00 | 84 | 1014.3 |
| 20260905005503 | 72 | 1 | 1.0 | 3.0 | 0.00 | 0.00 | 0.00 | 84 | 1014.3 |
| 20260905005003 | 73 | 1 | 2.0 | 3.0 | 0.00 | 0.00 | 0.00 | 84 | 1014.3 |
| 20260905004504 | 73 | 360 | 1.0 | 3.0 | 0.00 | 0.00 | 0.00 | 84 | 1014.3 |
| 20260905004005 | 73 | 12 | 1.0 | 2.0 | 0.00 | 0.00 | 0.00 | 84 | 1014.3 |
| 20260905003503 | 73 | 21 | 1.0 | 3.0 | 0.00 | 0.00 | 0.00 | 83 | 1014.3 |
| 20260905003003 | 73 | 25 | 2.0 | 3.0 | 0.00 | 0.00 | 0.00 | 83 | 1014.3 |
| 20260905002503 | 74 | 17 | 2.0 | 3.0 | 0.00 | 0.00 | 0.00 | 83 | 1014.3 |
| 20260905002214 | 74 | 10 | 1.0 | 2.0 | 0.00 | 0.00 | 0.00 | 82 | 1014.3 |
| 20260905001503 | 74 | 343 | 1.0 | 2.0 | 0.00 | 0.00 | 0.00 | 82 | 1014.3 |
| 20260905001003 | 74 | 17 | 2.0 | 5.0 | 0.00 | 0.00 | 0.00 | 83 | 1014.3 |
| 20260905000503 | 75 | 31 | 3.0 | 5.0 | 0.00 | 0.00 | 0.00 | 83 | 1014.3 |
| 20260905000003 | 75 | 31 | 2.0 | 5.0 | 0.00 | 0.00 | 0.00 | 83 | 1014.3 |
| 20260904235713 | 75 | 39 | 2.0 | 3.0 | 0.00 | 0.00 | 0.00 | 83 | 1014.3 |
| 20260904235005 | 75 | 34 | 2.0 | 4.0 | 0.00 | 0.00 | 0.00 | 83 | 1014.3 |
| 20260904234503 | 76 | 46 | 3.0 | 7.0 | 0.00 | 0.00 | 0.00 | 83 | 1014.3 |
| 20260904234004 | 76 | 47 | 3.0 | 7.0 | 0.00 | 0.00 | 0.00 | 82 | 1014.3 |
| 20260904233504 | 76 | 45 | 2.0 | 3.0 | 0.00 | 0.00 | 0.00 | 82 | 1014.3 |
| 20260904233219 | 75 | 45 | 2.0 | 3.0 | 0.00 | 0.00 | 0.00 | 81 | 1014.3 |
| 20260904232504 | 75 | 26 | 1.0 | 2.0 | 0.00 | 0.00 | 0.00 | 79 | 1015.3 |
| 20260904232215 | 75 | 346 | 1.0 | 2.0 | 0.00 | 0.00 | 0.00 | 79 | 1015.3 |
| 20260904231505 | 76 | 6 | 1.0 | 2.0 | 0.00 | 0.00 | 0.00 | 78 | 1015.3 |
| 20260904231215 | 76 | 40 | 1.0 | 3.0 | 0.00 | 0.00 | 0.00 | 78 | 1015.3 |
| 20260904230504 | 76 | 47 | 2.0 | 3.0 | 0.00 | 0.00 | 0.00 | 79 | 1015.3 |
| 20260904230004 | 76 | 52 | 1.0 | 3.0 | 0.00 | 0.00 | 0.00 | 78 | 1015.3 |
| 20260904225504 | 75 | 36 | 0.0 | 2.0 | 0.00 | 0.00 | 0.00 | 77 | 1015.3 |
| 20260904225004 | 75 | 21 | 0.0 | 2.0 | 0.00 | 0.00 | 0.00 | 77 | 1015.3 |
| 20260904224504 | 75 | 24 | 1.0 | 3.0 | 0.00 | 0.00 | 0.00 | 76 | 1015.3 |
| 20260904224004 | 76 | 19 | 1.0 | 3.0 | 0.00 | 0.00 | 0.00 | 76 | 1015.3 |
| 20260904223504 | 76 | 7 | 1.0 | 2.0 | 0.00 | 0.00 | 0.00 | 76 | 1015.3 |
| 20260904223214 | 76 | 2 | 1.0 | 2.0 | 0.00 | 0.00 | 0.00 | 75 | 1015.3 |
| 20260904222504 | 77 | 44 | 1.0 | 2.0 | 0.00 | 0.00 | 0.00 | 74 | 1015.3 |
| 20260904222004 | 79 | 68 | 2.0 | 6.0 | 0.00 | 0.00 | 0.00 | 75 | 1015.3 |
| 20260904221504 | 78 | 55 | 2.0 | 6.0 | 0.00 | 0.00 | 0.00 | 75 | 1015.3 |
| 20260904221004 | 78 | 45 | 2.0 | 5.0 | 0.00 | 0.00 | 0.00 | 74 | 1015.3 |
| 20260904220504 | 79 | 43 | 2.0 | 5.0 | 0.00 | 0.00 | 0.00 | 75 | 1015.3 |
| 20260904220217 | 78 | 45 | 1.0 | 5.0 | 0.00 | 0.00 | 0.00 | 73 | 1015.3 |
| 20260904215504 | 79 | 45 | 1.0 | 4.0 | 0.00 | 0.00 | 0.00 | 73 | 1015.3 |
| 20260904215213 | 79 | 52 | 2.0 | 5.0 | 0.00 | 0.00 | 0.00 | 73 | 1015.3 |
| 20260904214716 | 80 | 59 | 4.0 | 5.0 | 0.00 | 0.00 | 0.00 | 74 | 1015.3 |
| 20260904214214 | 80 | 65 | 4.0 | 5.0 | 0.00 | 0.00 | 0.00 | 73 | 1015.3 |
| 20260904213503 | 79 | 46 | 3.0 | 5.0 | 0.00 | 0.00 | 0.00 | 71 | 1015.3 |
| 20260904213004 | 79 | 47 | 4.0 | 5.0 | 0.00 | 0.00 | 0.00 | 70 | 1015.3 |
| 20260904212505 | 80 | 51 | 4.0 | 5.0 | 0.00 | 0.00 | 0.00 | 70 | 1015.3 |
| 20260904212004 | 80 | 50 | 4.0 | 6.0 | 0.00 | 0.00 | 0.00 | 70 | 1015.3 |
| 20260904211503 | 80 | 44 | 4.0 | 6.0 | 0.00 | 0.00 | 0.00 | 70 | 1015.3 |
| 20260904211003 | 80 | 42 | 5.0 | 7.0 | 0.00 | 0.00 | 0.00 | 71 | 1015.3 |
| 20260904210503 | 80 | 41 | 6.0 | 8.0 | 0.00 | 0.00 | 0.00 | 71 | 1015.3 |
| 20260904210004 | 81 | 44 | 5.0 | 8.0 | 0.00 | 0.00 | 0.00 | 70 | 1015.3 |
| 20260904205715 | 81 | 43 | 5.0 | 8.0 | 0.00 | 0.00 | 0.00 | 71 | 1015.3 |
| 20260904205004 | 80 | 58 | 4.0 | 6.0 | 0.00 | 0.00 | 0.00 | 72 | 1015.3 |
| 20260904204503 | 80 | 58 | 4.0 | 6.0 | 0.00 | 0.00 | 0.00 | 73 | 1015.3 |
| 20260904204003 | 80 | 54 | 4.0 | 5.0 | 0.00 | 0.00 | 0.00 | 73 | 1015.3 |
| 20260904203503 | 80 | 41 | 3.0 | 4.0 | 0.00 | 0.00 | 0.00 | 73 | 1015.3 |
| 20260904203003 | 80 | 353 | 2.0 | 5.0 | 0.00 | 0.00 | 0.00 | 72 | 1014.3 |
| 20260904202503 | 80 | 335 | 3.0 | 6.0 | 0.00 | 0.00 | 0.00 | 71 | 1014.3 |
| 20260904202003 | 80 | 329 | 2.0 | 6.0 | 0.00 | 0.00 | 0.00 | 71 | 1014.3 |
| 20260904201714 | 80 | 328 | 2.0 | 6.0 | 0.00 | 0.00 | 0.00 | 71 | 1014.3 |
| 20260904201217 | 80 | 319 | 1.0 | 3.0 | 0.00 | 0.00 | 0.00 | 70 | 1014.3 |
| 20260904200503 | 80 | 322 | 1.0 | 2.0 | 0.00 | 0.00 | 0.00 | 70 | 1014.3 |
| 20260904200003 | 81 | 341 | 1.0 | 3.0 | 0.00 | 0.00 | 0.00 | 69 | 1014.3 |
| 20260904195503 | 81 | 356 | 1.0 | 3.0 | 0.00 | 0.00 | 0.00 | 69 | 1014.3 |
| 20260904195004 | 81 | 3 | 1.0 | 3.0 | 0.00 | 0.00 | 0.00 | 69 | 1014.3 |
| 20260904194504 | 82 | 4 | 1.0 | 3.0 | 0.00 | 0.00 | 0.00 | 68 | 1014.3 |
| 20260904194004 | 82 | 356 | 2.0 | 5.0 | 0.00 | 0.00 | 0.00 | 68 | 1014.3 |
| 20260904193504 | 82 | 360 | 2.0 | 5.0 | 0.00 | 0.00 | 0.00 | 68 | 1014.3 |
| 20260904193004 | 82 | 360 | 1.0 | 4.0 | 0.00 | 0.00 | 0.00 | 66 | 1014.3 |
| 20260904192714 | 82 | 360 | 2.0 | 4.0 | 0.00 | 0.00 | 0.00 | 66 | 1014.3 |
| 20260904192004 | 83 | 4 | 4.0 | 6.0 | 0.00 | 0.00 | 0.00 | 66 | 1014.3 |
| 20260904191504 | 83 | 2 | 5.0 | 8.0 | 0.00 | 0.00 | 0.00 | 65 | 1014.3 |
| 20260904191004 | 83 | 4 | 6.0 | 9.0 | 0.00 | 0.00 | 0.00 | 65 | 1014.3 |
| 20260904190504 | 83 | 360 | 7.0 | 9.0 | 0.00 | 0.00 | 0.00 | 63 | 1014.3 |
| 20260904190004 | 84 | 356 | 7.0 | 10.0 | 0.00 | 0.00 | 0.00 | 62 | 1014.3 |
| 20260904185504 | 84 | 360 | 7.0 | 10.0 | 0.00 | 0.00 | 0.00 | 61 | 1014.3 |
| 20260904185004 | 84 | 7 | 7.0 | 10.0 | 0.00 | 0.00 | 0.00 | 61 | 1014.3 |
| 20260904184504 | 84 | 8 | 7.0 | 10.0 | 0.00 | 0.00 | 0.00 | 60 | 1014.3 |
| 20260904184216 | 84 | 4 | 7.0 | 10.0 | 0.00 | 0.00 | 0.00 | 60 | 1014.3 |
| 20260904183504 | 84 | 11 | 8.0 | 10.0 | 0.00 | 0.00 | 0.00 | 60 | 1014.3 |
| 20260904183004 | 84 | 5 | 7.0 | 10.0 | 0.00 | 0.00 | 0.00 | 59 | 1014.3 |
| 20260904182504 | 84 | 360 | 4.0 | 9.0 | 0.00 | 0.00 | 0.00 | 56 | 1014.3 |
| 20260904182218 | 84 | 352 | 3.0 | 4.0 | 0.00 | 0.00 | 0.00 | 55 | 1014.3 |
| 20260904181715 | 84 | 4 | 3.0 | 5.0 | 0.00 | 0.00 | 0.00 | 52 | 1014.3 |
| 20260904181213 | 85 | 3 | 4.0 | 7.0 | 0.00 | 0.00 | 0.00 | 50 | 1013.3 |
| 20260904180504 | 86 | 360 | 5.0 | 7.0 | 0.00 | 0.00 | 0.00 | 47 | 1013.3 |
| 20260904180004 | 86 | 360 | 6.0 | 9.0 | 0.00 | 0.00 | 0.00 | 44 | 1013.3 |
| 20260904175504 | 87 | 360 | 6.0 | 9.0 | 0.00 | 0.00 | 0.00 | 42 | 1013.3 |
| 20260904175004 | 87 | 4 | 5.0 | 8.0 | 0.00 | 0.00 | 0.00 | 41 | 1013.3 |
| 20260904174504 | 87 | 12 | 4.0 | 6.0 | 0.00 | 0.00 | 0.00 | 41 | 1013.3 |
| 20260904174004 | 88 | 12 | 4.0 | 5.0 | 0.00 | 0.00 | 0.00 | 40 | 1013.3 |
| 20260904173504 | 88 | 358 | 5.0 | 7.0 | 0.00 | 0.00 | 0.00 | 40 | 1013.3 |
| 20260904173004 | 89 | 353 | 4.0 | 7.0 | 0.00 | 0.00 | 0.00 | 40 | 1013.3 |
| 20260904172504 | 90 | 4 | 5.0 | 12.0 | 0.00 | 0.00 | 0.00 | 40 | 1013.3 |
| 20260904172004 | 90 | 13 | 7.0 | 12.0 | 0.00 | 0.00 | 0.00 | 39 | 1013.3 |
| 20260904171503 | 90 | 13 | 7.0 | 11.0 | 0.00 | 0.00 | 0.00 | 40 | 1013.3 |
| 20260904171214 | 90 | 8 | 7.0 | 11.0 | 0.00 | 0.00 | 0.00 | 40 | 1013.3 |
| 20260904170717 | 91 | 14 | 7.0 | 10.0 | 0.00 | 0.00 | 0.00 | 40 | 1013.3 |
| 20260904170004 | 91 | 24 | 8.0 | 11.0 | 0.00 | 0.00 | 0.00 | 39 | 1012.3 |
| 20260904165503 | 92 | 19 | 9.0 | 13.0 | 0.00 | 0.00 | 0.00 | 38 | 1012.3 |
| 20260904165003 | 92 | 19 | 10.0 | 13.0 | 0.00 | 0.00 | 0.00 | 38 | 1012.3 |
| 20260904164503 | 92 | 29 | 11.0 | 18.0 | 0.00 | 0.00 | 0.00 | 39 | 1012.3 |
| 20260904164003 | 92 | 32 | 11.0 | 18.0 | 0.00 | 0.00 | 0.00 | 39 | 1012.3 |
| 20260904163503 | 93 | 28 | 10.0 | 15.0 | 0.00 | 0.00 | 0.00 | 38 | 1012.3 |
| 20260904163003 | 93 | 30 | 11.0 | 15.0 | 0.00 | 0.00 | 0.00 | 39 | 1012.3 |
| 20260904162503 | 93 | 40 | 11.0 | 15.0 | 0.00 | 0.00 | 0.00 | 39 | 1012.3 |
| 20260904162003 | 93 | 32 | 10.0 | 18.0 | 0.00 | 0.00 | 0.00 | 39 | 1012.3 |
| 20260904161503 | 94 | 20 | 11.0 | 18.0 | 0.00 | 0.00 | 0.00 | 38 | 1012.3 |
| 20260904161215 | 94 | 22 | 11.0 | 15.0 | 0.00 | 0.00 | 0.00 | 38 | 1012.3 |
| 20260904160504 | 94 | 39 | 10.0 | 14.0 | 0.00 | 0.00 | 0.00 | 37 | 1012.3 |
| 20260904160216 | 94 | 29 | 10.0 | 15.0 | 0.00 | 0.00 | 0.00 | 39 | 1012.3 |
| 20260904155504 | 95 | 34 | 12.0 | 16.0 | 0.00 | 0.00 | 0.00 | 39 | 1012.3 |
| 20260904155004 | 95 | 44 | 9.0 | 16.0 | 0.00 | 0.00 | 0.00 | 38 | 1012.3 |
| 20260904154720 | 95 | 34 | 8.0 | 16.0 | 0.00 | 0.00 | 0.00 | 37 | 1012.3 |
| 20260904154004 | 95 | 26 | 11.0 | 16.0 | 0.00 | 0.00 | 0.00 | 37 | 1012.3 |
| 20260904153504 | 95 | 29 | 10.0 | 16.0 | 0.00 | 0.00 | 0.00 | 37 | 1012.3 |
| 20260904153004 | 95 | 40 | 11.0 | 18.0 | 0.00 | 0.00 | 0.00 | 38 | 1012.3 |
| 20260904152504 | 94 | 46 | 10.0 | 18.0 | 0.00 | 0.00 | 0.00 | 40 | 1012.3 |
| 20260904152004 | 93 | 16 | 8.0 | 14.0 | 0.00 | 0.00 | 0.00 | 42 | 1012.3 |
| 20260904151504 | 92 | 288 | 11.0 | 17.0 | 0.00 | 0.00 | 0.00 | 53 | 1012.3 |
| 20260904151004 | 92 | 290 | 16.0 | 27.0 | 0.00 | 0.00 | 0.00 | 53 | 1012.3 |
| 20260904150505 | 92 | 295 | 12.0 | 27.0 | 0.00 | 0.00 | 0.00 | 54 | 1012.3 |
| 20260904150004 | 92 | 305 | 11.0 | 25.0 | 0.00 | 0.00 | 0.00 | 55 | 1012.3 |
| 20260904145504 | 92 | 293 | 17.0 | 25.0 | 0.00 | 0.00 | 0.00 | 54 | 1012.3 |
| 20260904145004 | 92 | 281 | 18.0 | 23.0 | 0.00 | 0.00 | 0.00 | 54 | 1012.3 |
| 20260904144504 | 93 | 295 | 19.0 | 27.0 | 0.00 | 0.00 | 0.00 | 53 | 1012.3 |
| 20260904144004 | 93 | 301 | 19.0 | 27.0 | 0.00 | 0.00 | 0.00 | 52 | 1012.3 |
| 20260904143504 | 93 | 301 | 20.0 | 28.0 | 0.00 | 0.00 | 0.00 | 52 | 1012.3 |
| 20260904143004 | 93 | 299 | 22.0 | 30.0 | 0.00 | 0.00 | 0.00 | 51 | 1012.3 |
| 20260904142717 | 93 | 295 | 22.0 | 30.0 | 0.00 | 0.00 | 0.00 | 50 | 1012.3 |
| 20260904141504 | 92 | 301 | 20.0 | 30.0 | 0.00 | 0.00 | 0.00 | 50 | 1012.3 |
| 20260904141003 | 92 | 291 | 20.0 | 30.0 | 0.00 | 0.00 | 0.00 | 51 | 1012.3 |
| 20260904140713 | 93 | 280 | 19.0 | 30.0 | 0.00 | 0.00 | 0.00 | 49 | 1012.3 |
| 20260904140004 | 92 | 273 | 20.0 | 31.0 | 0.00 | 0.00 | 0.00 | 52 | 1012.3 |
| 20260904135714 | 92 | 273 | 21.0 | 31.0 | 0.00 | 0.00 | 0.00 | 51 | 1012.3 |
| 20260904135003 | 92 | 279 | 21.0 | 31.0 | 0.00 | 0.00 | 0.00 | 52 | 1012.3 |
| 20260904134503 | 92 | 277 | 23.0 | 33.0 | 0.00 | 0.00 | 0.00 | 52 | 1012.3 |
| 20260904134003 | 93 | 275 | 23.0 | 33.0 | 0.00 | 0.00 | 0.00 | 52 | 1012.3 |
| 20260904133503 | 93 | 270 | 20.0 | 26.0 | 0.00 | 0.00 | 0.00 | 51 | 1013.3 |
| 20260904133003 | 93 | 273 | 18.0 | 23.0 | 0.00 | 0.00 | 0.00 | 52 | 1013.3 |
| 20260904132504 | 93 | 275 | 18.0 | 27.0 | 0.00 | 0.00 | 0.00 | 52 | 1013.3 |
| 20260904132215 | 93 | 275 | 18.0 | 27.0 | 0.00 | 0.00 | 0.00 | 51 | 1013.3 |
| 20260904131503 | 92 | 288 | 20.0 | 28.0 | 0.00 | 0.00 | 0.00 | 53 | 1013.3 |
| 20260904131003 | 93 | 289 | 18.0 | 28.0 | 0.00 | 0.00 | 0.00 | 52 | 1013.3 |
| 20260904130503 | 92 | 270 | 17.0 | 20.0 | 0.00 | 0.00 | 0.00 | 52 | 1013.3 |
| 20260904130217 | 92 | 264 | 17.0 | 24.0 | 0.00 | 0.00 | 0.00 | 53 | 1013.3 |
| 20260904125503 | 92 | 273 | 19.0 | 24.0 | 0.00 | 0.00 | 0.00 | 52 | 1013.3 |
| 20260904125003 | 92 | 277 | 18.0 | 23.0 | 0.00 | 0.00 | 0.00 | 51 | 1013.3 |
| 20260904124716 | 92 | 270 | 15.0 | 23.0 | 0.00 | 0.00 | 0.00 | 52 | 1013.3 |
| 20260904124214 | 92 | 267 | 14.0 | 23.0 | 0.00 | 0.00 | 0.00 | 52 | 1013.3 |
| 20260904123503 | 92 | 267 | 15.0 | 23.0 | 0.00 | 0.00 | 0.00 | 52 | 1013.3 |
| 20260904123003 | 92 | 274 | 12.0 | 17.0 | 0.00 | 0.00 | 0.00 | 52 | 1013.3 |
| 20260904122509 | 92 | 277 | 11.0 | 15.0 | 0.00 | 0.00 | 0.00 | 52 | 1013.3 |
| 20260904122216 | 92 | 276 | 12.0 | 19.0 | 0.00 | 0.00 | 0.00 | 52 | 1013.3 |
| 20260904121504 | 92 | 274 | 14.0 | 19.0 | 0.00 | 0.00 | 0.00 | 52 | 1013.3 |
| 20260904121004 | 92 | 270 | 13.0 | 17.0 | 0.00 | 0.00 | 0.00 | 51 | 1013.3 |
| 20260904120504 | 92 | 270 | 12.0 | 17.0 | 0.00 | 0.00 | 0.00 | 49 | 1014.3 |
| 20260904120004 | 91 | 256 | 12.0 | 19.0 | 0.00 | 0.00 | 0.00 | 52 | 1014.3 |
| 20260904115504 | 91 | 213 | 12.0 | 19.0 | 0.00 | 0.00 | 0.00 | 51 | 1014.3 |
| 20260904115005 | 91 | 186 | 11.0 | 15.0 | 0.00 | 0.00 | 0.00 | 52 | 1014.3 |
| 20260904114716 | 91 | 186 | 11.0 | 15.0 | 0.00 | 0.00 | 0.00 | 53 | 1014.3 |
| 20260904114214 | 90 | 188 | 10.0 | 14.0 | 0.00 | 0.00 | 0.00 | 53 | 1014.3 |
| 20260904113504 | 90 | 180 | 11.0 | 17.0 | 0.00 | 0.00 | 0.00 | 54 | 1014.3 |
| 20260904113004 | 90 | 180 | 13.0 | 19.0 | 0.00 | 0.00 | 0.00 | 56 | 1014.3 |
| 20260904112504 | 90 | 180 | 12.0 | 19.0 | 0.00 | 0.00 | 0.00 | 55 | 1014.3 |
| 20260904112004 | 90 | 180 | 10.0 | 15.0 | 0.00 | 0.00 | 0.00 | 56 | 1014.3 |
| 20260904111714 | 89 | 186 | 11.0 | 15.0 | 0.00 | 0.00 | 0.00 | 56 | 1014.3 |
| 20260904111004 | 89 | 186 | 11.0 | 15.0 | 0.00 | 0.00 | 0.00 | 56 | 1014.3 |
| 20260904110504 | 90 | 189 | 10.0 | 13.0 | 0.00 | 0.00 | 0.00 | 56 | 1014.3 |
| 20260904110213 | 89 | 189 | 10.0 | 13.0 | 0.00 | 0.00 | 0.00 | 56 | 1014.3 |
| 20260904105504 | 89 | 194 | 9.0 | 12.0 | 0.00 | 0.00 | 0.00 | 57 | 1014.3 |
| 20260904105004 | 89 | 218 | 9.0 | 14.0 | 0.00 | 0.00 | 0.00 | 57 | 1014.3 |
| 20260904104718 | 89 | 242 | 9.0 | 14.0 | 0.00 | 0.00 | 0.00 | 57 | 1014.3 |
| 20260904104004 | 88 | 249 | 10.0 | 14.0 | 0.00 | 0.00 | 0.00 | 58 | 1014.3 |
| 20260904103504 | 88 | 236 | 10.0 | 14.0 | 0.00 | 0.00 | 0.00 | 58 | 1014.3 |
| 20260904103004 | 88 | 211 | 10.0 | 15.0 | 0.00 | 0.00 | 0.00 | 60 | 1014.3 |
| 20260904102504 | 88 | 189 | 9.0 | 15.0 | 0.00 | 0.00 | 0.00 | 62 | 1014.3 |
| 20260904102004 | 88 | 187 | 9.0 | 14.0 | 0.00 | 0.00 | 0.00 | 62 | 1014.3 |
| 20260904101504 | 87 | 196 | 9.0 | 14.0 | 0.00 | 0.00 | 0.00 | 63 | 1014.3 |
| 20260904101218 | 87 | 201 | 9.0 | 14.0 | 0.00 | 0.00 | 0.00 | 63 | 1014.3 |
| 20260904100504 | 87 | 180 | 9.0 | 14.0 | 0.00 | 0.00 | 0.00 | 65 | 1014.3 |
| 20260904100004 | 86 | 188 | 10.0 | 13.0 | 0.00 | 0.00 | 0.00 | 65 | 1014.3 |
| 20260904095505 | 86 | 189 | 9.0 | 13.0 | 0.00 | 0.00 | 0.00 | 66 | 1014.3 |
| 20260904095004 | 86 | 185 | 7.0 | 11.0 | 0.00 | 0.00 | 0.00 | 65 | 1014.3 |
| 20260904094504 | 86 | 184 | 8.0 | 11.0 | 0.00 | 0.00 | 0.00 | 66 | 1014.3 |
| 20260904094003 | 85 | 198 | 9.0 | 11.0 | 0.00 | 0.00 | 0.00 | 66 | 1014.3 |
| 20260904093504 | 85 | 198 | 9.0 | 10.0 | 0.00 | 0.00 | 0.00 | 65 | 1014.3 |
| 20260904093216 | 85 | 183 | 8.0 | 10.0 | 0.00 | 0.00 | 0.00 | 65 | 1014.3 |
| 20260904092503 | 86 | 187 | 9.0 | 14.0 | 0.00 | 0.00 | 0.00 | 64 | 1014.3 |
| 20260904092004 | 86 | 197 | 10.0 | 14.0 | 0.00 | 0.00 | 0.00 | 63 | 1014.3 |
| 20260904091505 | 86 | 199 | 10.0 | 12.0 | 0.00 | 0.00 | 0.00 | 64 | 1014.3 |
| 20260904091003 | 86 | 188 | 10.0 | 14.0 | 0.00 | 0.00 | 0.00 | 64 | 1014.3 |
| 20260904090716 | 85 | 188 | 10.0 | 14.0 | 0.00 | 0.00 | 0.00 | 64 | 1014.3 |
| 20260904090003 | 85 | 180 | 10.0 | 12.0 | 0.00 | 0.00 | 0.00 | 64 | 1014.3 |
| 20260904085503 | 85 | 180 | 9.0 | 12.0 | 0.00 | 0.00 | 0.00 | 64 | 1014.3 |
| 20260904085003 | 85 | 180 | 7.0 | 11.0 | 0.00 | 0.00 | 0.00 | 64 | 1014.3 |
| 20260904084504 | 86 | 180 | 8.0 | 11.0 | 0.00 | 0.00 | 0.00 | 63 | 1014.3 |
| 20260904084003 | 85 | 180 | 8.0 | 10.0 | 0.00 | 0.00 | 0.00 | 63 | 1014.3 |
| 20260904083503 | 86 | 178 | 6.0 | 9.0 | 0.00 | 0.00 | 0.00 | 61 | 1014.3 |
| 20260904083004 | 87 | 203 | 5.0 | 6.0 | 0.00 | 0.00 | 0.00 | 61 | 1014.3 |
| 20260904082503 | 87 | 224 | 4.0 | 6.0 | 0.00 | 0.00 | 0.00 | 60 | 1014.3 |
| 20260904082003 | 89 | 263 | 3.0 | 6.0 | 0.00 | 0.00 | 0.00 | 58 | 1014.3 |
| 20260904081716 | 89 | 312 | 3.0 | 5.0 | 0.00 | 0.00 | 0.00 | 58 | 1014.3 |
| 20260904081004 | 88 | 326 | 2.0 | 4.0 | 0.00 | 0.00 | 0.00 | 58 | 1014.3 |
| 20260904080504 | 88 | 7 | 3.0 | 7.0 | 0.00 | 0.00 | 0.00 | 58 | 1014.3 |
| 20260904080215 | 87 | 15 | 3.0 | 7.0 | 0.00 | 0.00 | 0.00 | 59 | 1014.3 |
| 20260904075504 | 87 | 44 | 3.0 | 6.0 | 0.00 | 0.00 | 0.00 | 61 | 1014.3 |
| 20260904075004 | 86 | 43 | 4.0 | 6.0 | 0.00 | 0.00 | 0.00 | 60 | 1014.3 |
| 20260904074719 | 86 | 63 | 5.0 | 10.0 | 0.00 | 0.00 | 0.00 | 62 | 1014.3 |
| 20260904074004 | 85 | 64 | 5.0 | 10.0 | 0.00 | 0.00 | 0.00 | 64 | 1014.3 |